Other Surface Observations
Issued by NWS

Current Version | Previous Version | Text Only | Print | Product List | Glossary On
Versions: 1 2 3 4 5 6 7 8 9 10 11 12 13 14 15 16 17 18 19 20 21 22 23 24 25 26 27 28 29 30 31 32 33 34 35 36 37 38 39 40 41 42 43 44 45 46 47 48 49 50
000
SXUS52 KTAE 300619
OSOTAE
OSOTAE
North Florida/South Alabama/Southwest Georgia Weather Roundup
National Weather Service Tallahassee Florida
200 AM EDT SUN AUG 30 2015

Note: "fair" indicates few or no clouds below 12,000 feet with no
significant weather and/or obstructions to visibility.

!FLZ017-115-028-034-025-300700
...North Florida...

CITY           SKY/WX    TMP DP  RH WIND       PRES   REMARKS
TALLAHASSEE    FAIR      75  71  87 CALM      30.05F
APALACHICOLA   FAIR      71  71 100 NE6       30.04S
PERRY          FAIR     N/A N/A N/A CALM      30.05F
CROSS CITY       N/A     75  73  93 CALM      30.04F
JACKSONVILLE   TSTM      77  74  90 S8        30.06F
$$

!FLZ112-006-005-002-011-300700
...Florida Panhandle...

CITY           SKY/WX    TMP DP  RH WIND       PRES   REMARKS
MARIANNA       CLOUDY    73  73 100 E5        30.05F
BONIFAY        CLOUDY    71  70  96 N3        30.06F
PANAMA CITY NW FAIR      71  69  93 CALM      30.04F
TYNDALL AFB    FAIR      73  71  94 NE5       30.04F
TYND DRONE APT FAIR      73  72  98 NE5       30.04F
DE FUNIAK SPR  FAIR      70  69  97 CALM      30.06F
EGLIN AFB      CLEAR     74  68  82 NE7       30.04F
DESTIN         FAIR      74  70  87 E3        30.04F
HURLBURT       FAIR      71  68  89 NE1       30.03S
CRESTVIEW      FAIR      68  67  96 CALM      30.07S
PENSACOLA      FAIR      74  69  85 E5        30.04S
$$

!ALZ063-066-300700
...South Alabama...

CITY           SKY/WX    TMP DP  RH WIND       PRES   REMARKS
DOTHAN         MOCLDY    71  69  93 E3        30.10S
OZARK CAIRNS     N/A     71  70  95 NE2       30.06F
FT RUCKER HELI CLOUDY    72  69  90 CALM      30.06S
RUCKER HELI 3  FAIR      71  69  94 SE3       30.08F
RUCKER HELI 2  NOT AVBL
FLORALA APT    FAIR      67  65  93 CALM      30.08F
ANDALUSIA      FAIR      72  68  87 CALM      30.06F
TROY           CLOUDY    72  70  93 CALM      30.08S
EUFALA         CLOUDY    72  71  97 W5        30.07S
MOBILE         FAIR      74  72  93 E3        30.05F
$$

!GAZ120>161-300700
...Southwest and South Central Georgia...

CITY           SKY/WX    TMP DP  RH WIND       PRES   REMARKS
THOMASVILLE    FAIR      70  70 100 CALM      30.07F
BAINBRIDGE     FAIR      72  70  94 E5        30.06F
MOODY AFB      CLOUDY    72  70  94 CALM      30.05F
VALDOSTA       FAIR      74  72  93 CALM      30.06F
MOULTRIE       FAIR      72  70  94 CALM      30.08F
BLAKELY        CLOUDY    73  72  94 CALM      30.07F
ALBANY         CLOUDY    75  71  87 SE3       30.08F
TIFTON         CLOUDY    73  72  98 CALM      30.08F
FITZGERALD     CLOUDY    75  74  96 CALM      30.10F
CORDELE        CLOUDY    76  74  92 SE6       30.09F
AMERICUS       CLOUDY    73  73 100 SE5       30.10F
HOMERVILLE     FAIR      75  73  94 E6        30.06F
$$

!GMZ750-755-770-775-300700
...Coastal and Buoy Obs...

STATION/POSITION TIME  TEMP    WIND        PRES    VSBY  WAVE
                       AIR SEA DIR/SP/G                  HT/PER
                 (UTC) (F)     (DEG/KT/KT) (MB)    (MI)  (FT/S)
KEATON BEACH     0600   73      30/  2/  3 1017.3F
CEDAR KEY        0600   76      80/ 11/ 14 1017.0F
C TOWER          0600   81      90/ 10/ 12 1016.6F
APALACHICOLA BUO 0550   83 85   50/  8/ 12 1016.1F         1/ 3
PANAMA CITY BUOY 0550   81 85  100/ 10/ 14 1016.9F         2/ 4
MOBILE BUOY      0550   83 85  120/  8/ 10 1017.2S         2/ 6
ORANGE BCH AL BU 0550   83 85  130/ 10/ 12 1016.1F         2/ 6
$$



USA.gov is the U.S. government's official web portal to all federal, state and local government web resources and services.